Location: Chemnitz
(49.5500°N, 11.5830°E)
Time: 11:53:06
(UTC+02:00)

ISS - Visible Passes

Search period start: 20 May 2018 00:00
Search period end: 30 May 2018 00:00
Orbit: 402 x 407 km, 51.6° (Epoch: 20 May)

Date Brightness Start Highest point End Pass type
(mag) Time Alt. Az. Time Alt. Az. Time Alt. Az.
20 May -2.0 00:06:25 22° ENE 00:06:25 22° ENE 00:07:42 10° ENE visible
20 May -3.3 01:38:57 20° W 01:41:01 58° N 01:44:15 10° ENE visible
20 May -3.8 03:14:24 10° WNW 03:17:41 81° NNE 03:20:57 10° ESE visible
20 May -3.6 23:09:13 10° SW 23:12:20 43° SSE 23:15:28 10° ENE visible
21 May -3.5 00:45:30 10° W 00:48:46 65° N 00:52:02 10° ENE visible
21 May -3.5 02:22:12 10° WNW 02:25:28 65° N 02:28:42 10° E visible
21 May -3.5 03:58:46 10° WNW 04:01:54 43° SSW 04:05:00 10° SE visible
21 May -2.9 22:17:24 10° SSW 22:20:15 28° SE 22:23:07 10° E visible
21 May -3.8 23:53:15 10° WSW 23:56:32 81° NNW 23:59:49 10° ENE visible
22 May -3.3 01:29:58 10° WNW 01:33:12 58° N 01:36:26 10° E visible
22 May -4.0 03:06:30 10° WNW 03:09:46 65° SSW 03:13:00 10° ESE visible
22 May -4.0 23:01:03 10° WSW 23:04:19 76° SSE 23:07:35 10° ENE visible
23 May -3.2 00:37:41 10° W 00:40:55 57° N 00:44:09 10° ENE visible
23 May -3.9 02:14:17 10° WNW 02:17:34 89° NE 02:20:50 10° ESE visible
23 May -2.7 03:51:05 10° W 03:53:45 23° SW 03:56:26 10° SSE visible
23 May -3.7 22:08:57 10° SW 22:12:08 51° SSE 22:15:20 10° ENE visible
23 May -3.4 23:45:22 10° W 23:48:37 62° N 23:51:53 10° ENE visible
24 May -3.6 01:22:02 10° WNW 01:25:19 70° NNE 01:27:48 16° E visible
24 May -2.4 02:58:38 10° W 03:00:12 23° W 03:00:12 23° W visible
24 May -3.6 22:53:04 10° W 22:56:20 74° NNW 22:59:37 10° ENE visible
25 May -3.3 00:29:46 10° WNW 00:33:01 60° N 00:35:35 15° E visible
25 May -2.6 02:06:19 10° WNW 02:08:09 29° W 02:08:09 29° W visible
25 May -3.9 22:00:48 10° WSW 22:04:04 85° SSE 22:07:21 10° ENE visible
25 May -3.2 23:37:28 10° W 23:40:42 57° N 23:43:56 10° E visible
26 May -3.9 01:14:02 10° WNW 01:17:03 72° W 01:17:03 72° W visible
26 May -3.2 22:45:07 10° W 22:48:22 59° N 22:51:37 10° ENE visible
27 May -3.7 00:21:46 10° WNW 00:25:02 76° NNE 00:26:11 37° E visible
27 May -1.3 01:58:24 10° W 01:58:47 12° W 01:58:47 12° W visible
27 May -3.5 21:52:46 10° W 21:56:02 69° N 21:59:18 10° ENE visible
27 May -3.4 23:29:28 10° WNW 23:32:43 63° N 23:35:23 14° E visible
28 May -2.6 01:06:00 10° WNW 01:08:01 31° W 01:08:01 31° W visible
28 May -3.2 22:37:07 10° WNW 22:40:22 57° N 22:43:36 10° E visible
29 May -4.0 00:13:40 10° WNW 00:16:57 73° SSW 00:17:18 64° SSE visible
29 May -3.8 23:21:22 10° WNW 23:24:39 83° NNE 23:26:37 22° ESE visible
